Location: Dittelbrunn
(50.0738°N, 10.2196°E)
Time: 12:37:46
(UTC+00:00)

Cosmos 1844 - Pass Details

Date: 18 September 2020
Orbit: 824 x 866 km, 70.9° (Epoch: 23 October)

Event Time Altitude Azimuth Distance (km) Brightness Sun altitude
Rises 19:27:03 0° 191° (SSW) 3,412 6.7 -19.6°
Reaches altitude 10° 19:29:33 10° 187° (S) 2,474 5.9 -19.9°
Maximum altitude 19:35:03 54° 112° (ESE) 1,024 3.7 -20.7°
Drops below altitude 10° 19:40:32 10° 37° (NE) 2,463 6.1 -21.5°
Sets 19:43:01 0° 33° (NNE) 3,395 6.8 -21.8°
